Flag for United Kingdom Weather past 2 weeks in London, England, United Kingdom

Now
54 °F

Overcast.


Feels Like: 49 °F
Forecast: N/A
Wind: 17 mph from West

Location: Northolt

Current Time: Dec 22, 2014 at 10:55:14 PM

Latest Report: Dec 22, 2014 at 9:50 PM


Visibility: N/A

Pressure: 30.07 "Hg

Humidity: 72%

Dew point: 45 °F

Location of LondonLocation

Historic Weather in London — Graph

°F

London temperature yesterday

Maximum temperature yesterday: 54 °F (at 9:50 PM)
Minimum temperature yesterday: 39 °F (at 12:50 AM)
Average temperature yesterday: 48 °F

Past Weeks' High & Low Weather Summary

 TemperatureHumidityPressure
High57 °F (Dec 18, 11:50 AM)100% (Dec 13, 8:50 AM)30.45 "Hg (Dec 13, 8:50 AM)
Low27 °F (Dec 14, 12:50 AM)50% (Dec 10, 12:50 PM)29.27 "Hg (Dec 12, 4:50 AM)
Average45 °F82%29.95 "Hg
* Reported Dec 7 8:50 PM — Dec 22 8:50 PM, London, Weather by CustomWeather, © 2014

Note: Actual official high and low records may vary slightly from our data, if they occured in-between our weather recording intervals... More about our weather records

Advertising

London weather history for previous 24 hours

 ConditionsComfort  
Time TempWeatherWind HumidityBarometerVisibility
8:50 PM
Dec 22
54 °FPassing clouds.16 mph72%30.04 "HgN/A
7:50 PM54 °FPassing clouds.16 mph72%30.04 "HgN/A
6:50 PM54 °FPartly cloudy.17 mph72%30.04 "HgN/A
5:50 PM54 °FPassing clouds.18 mph77%30.04 "HgN/A
4:50 PM55 °FPartly cloudy.16 mph72%30.04 "HgN/A
3:50 PM55 °FMostly cloudy.16 mph72%30.04 "HgN/A
2:50 PM55 °FOvercast.15 mph77%30.04 "HgN/A
1:50 PM55 °FOvercast.17 mph77%30.04 "HgN/A
12:50 PM55 °FOvercast.18 mph72%30.04 "HgN/A
11:50 AM55 °FMostly cloudy.20 mph72%30.07 "HgN/A
10:50 AM55 °FMostly cloudy.21 mph72%30.07 "HgN/A
9:50 AM55 °FMostly cloudy.22 mph72%30.07 "HgN/A
8:50 AM55 °FPartly sunny.24 mph72%30.04 "HgN/A
7:50 AM55 °FMostly cloudy.21 mph77%30.04 "HgN/A
6:50 AM55 °FMostly cloudy.18 mph82%30.04 "HgN/A
5:50 AM55 °FPartly cloudy.18 mph82%30.04 "HgN/A
4:50 AM54 °FOvercast.17 mph94%30.07 "HgN/A
3:50 AM54 °FOvercast.16 mph94%30.07 "HgN/A
2:50 AM54 °FOvercast.18 mph88%30.09 "HgN/A
1:50 AM54 °FOvercast.16 mph88%30.09 "HgN/A
12:50 AM54 °FOvercast.14 mph88%30.12 "HgN/A
11:50 PM
Dec 21
54 °FOvercast.16 mph82%30.12 "HgN/A
10:50 PM54 °FPassing clouds.17 mph82%30.15 "HgN/A
Weather by CustomWeather, © 2014

See weather overviewHow to use our weather pages